Location: Detroit
(42.3310°N, 83.0460°W)
Time: 00:31:15
(UTC-04:00)

A-11 Canister half - Pass Details

Date: 14 February 2023
Orbit: 1526 x 1682 km, 47.3° (Epoch: 20 March)

Event Time Altitude Azimuth Distance (km) Brightness Sun altitude
Rises 03:48:21 0° 240° (WSW) 4,710 - -41.1°
Reaches altitude 10° 03:51:24 10° 241° (WSW) 3,714 - -40.5°
Maximum altitude 04:00:47 86° 153° (SSE) 1,533 - -38.9°
Exits shadow 04:01:40 76° 78° (ENE) 1,566 8.9 -38.8°
Drops below altitude 10° 04:10:07 10° 66° (ENE) 3,703 11.7 -37.3°
Sets 04:13:10 0° 67° (ENE) 4,696 12.5 -36.8°
